This is the latest recevied weather packets stored in our database for station/object K1AWR. If no packets are shown the sender has not sent any weather packets the latest 10 day(s).
| Time | Temp. | Humidity | Pressure | Rain* | Wind** | Luminosity | Snow |
|---|---|---|---|---|---|---|---|
| 1778094310 | 15° C | 90% | 1007.8 hPa | 0 mm | - | 44 W/m² | - |
| 1778094006 | 15° C | 90% | 1007.7 hPa | 3.05 mm | - | 64 W/m² | - |
| 1778093704 | 15.56° C | 90% | 1007.9 hPa | 3.05 mm | - | 68 W/m² | - |
| 1778093400 | 15.56° C | 89% | 1007.9 hPa | 0 mm | - | 137 W/m² | - |
| 1778093098 | 15.56° C | 89% | 1008.2 hPa | 0 mm | - | 137 W/m² | - |
| 1778092794 | 15.56° C | 89% | 1007.7 hPa | 1.27 mm | - | 137 W/m² | - |
| 1778092490 | 15.56° C | 89% | 1008 hPa | 1.27 mm | - | 98 W/m² | - |
| 1778092187 | 15.56° C | 89% | 1007.9 hPa | 3.05 mm | - | 94 W/m² | - |
| 1778091884 | 15.56° C | 89% | 1008.1 hPa | 1.78 mm | - | 70 W/m² | - |
| 1778091581 | 15.56° C | 89% | 1008 hPa | 0 mm | - | 50 W/m² | - |
| 1778091279 | 15.56° C | 89% | 1008.1 hPa | 0 mm | - | 64 W/m² | - |
| 1778090976 | 15.56° C | 88% | 1007.8 hPa | 1.78 mm | - | 63 W/m² | - |
| 1778090672 | 15.56° C | 89% | 1007.8 hPa | 1.78 mm | - | 77 W/m² | - |
| 1778090369 | 15.56° C | 89% | 1008 hPa | 0 mm | - | 81 W/m² | - |
| 1778090066 | 15.56° C | 88% | 1008.1 hPa | 1.27 mm | - | 65 W/m² | - |
| 1778089763 | 15.56° C | 88% | 1008 hPa | 1.27 mm | - | 63 W/m² | - |
| 1778089461 | 16.11° C | 87% | 1008.4 hPa | 0 mm | - | 68 W/m² | - |
| 1778089157 | 16.11° C | 86% | 1008.7 hPa | 1.78 mm | - | 67 W/m² | - |
| 1778088854 | 16.11° C | 85% | 1008.4 hPa | 1.78 mm | - | 79 W/m² | - |
| 1778088551 | 16.67° C | 84% | 1008.7 hPa | 0 mm | - | 62 W/m² | - |
| 1778088248 | 16.67° C | 82% | 1009.1 hPa | 0 mm | - | 47 W/m² | - |
| 1778087945 | 16.67° C | 80% | 1008.8 hPa | 0 mm | - | 50 W/m² | - |
| 1778087643 | 17.22° C | 79% | 1009 hPa | 0 mm | - | 53 W/m² | - |
| 1778087340 | 17.78° C | 77% | 1009.2 hPa | 0 mm | - | 41 W/m² | - |
| 1778087036 | 17.78° C | 75% | 1009.2 hPa | 0 mm | - | 46 W/m² | - |
* Rain latest hour (hover to see other rain measurements)
** Current wind speed in m/s (hover to see current wind gust speed)